Вернуться в каталог

COSMOS 2251 DEB

АктивенLEO
NORAD 34040·DEBRIS·🇷🇺 Russia

Запущен Jun 16, 1993 с Plesetsk Cosmodrome

Loading…

Ближайшие Пролёты (ближайшие 24 часа)

TLE

СвежийSource: Space-Track

Эпоха: Sep 14, 2026, 11:41 UTC

1 34040U 93036JB  26257.48700324  .00002039  00000-0  15900-2 0  9993
2 34040  73.9583 329.8714 0338836 229.2725 127.8516 13.69259305873733

Отслеживайте COSMOS 2251 DEB в реальном времени с AllMySat

Download on the App Store